Zurück zum Katalog

ONEWEB-0277

AktivKommunikationPO
NORAD 48995·PAYLOAD·🇬🇧 United Kingdom

Gestartet Jul 1, 2021 von Vostochny Cosmodrome

Loading…

Nächste Überflüge (nächste 24 Stunden)

TLE

AktuellSource: CelesTrak SupGP

Epoche: Sep 14, 2026, 12:06 UTC

1 48995C 21060AE  26257.50470324 -.00001498  00000+0 -39227-2 0  2576
2 48995  87.9143 211.0443 0002099  75.8958 326.5360 13.16594421    18

Verfolge ONEWEB-0277 in Echtzeit mit AllMySat

Download on the App Store